sat.trackr.live / text

‹ back to catalog

STARLINK-37851

NORAD 69658 · 2026-143K

PAYLOAD ACTIVE UNKNOWN

§ Identity

Operator
Country
US
Launch date
2026-06-21
Launch site
AFWTR
Launch vehicle
Mass (kg)
RCS (m²)

Purposes: comms

External: N2YO · Heavens-Above · Gunter

§ Orbital elements

Epoch: 2026-09-19T20:11:01.407264Z

Period
93.91 min
Inclination
97.2850°
Eccentricity
0.0000581
Mean motion
15.33464301 rev/d
Perigee alt
465.1 km
Apogee alt
465.9 km
Semi-major
6,843.6 km
B*
3.4863e-4
RAAN
306.0713°
Arg perigee
97.0135°
Mean anomaly
263.1174°
Rev number
1,504

§ Raw data

STARLINK-378511 69658U 26143K   26262.84098851  .00011203  00000+0  34863-3 0  99942 69658  97.2850 306.0713 0000581  97.0135 263.1174 15.33464301 15040

JSON: /api/v1/satellites/69658 · /tle

For live sub-satellite position, see the globe view (requires WebGL).

§ Visibility from observer

Set your observer location to see the next 7 days of passes ≥ 10°. The values pass through the URL so the page stays shareable.

No JS? Fill the form by hand. The geolocation button needs JavaScript.